FIN4DR EFHK-ELLX

Flight info

Callsign FIN4DR
Flight time 2h 23m
Altitude 38000
Route NUNTO Y369 REKDO DCT KOSKA DCT MOVIS DCT DISGO DCT KOKOR DCT KEGAB DCT ABAMI Z717 NEREL T855 LNO
Aircraft E190/M-SDE3GILORVW/S

Departure

Time 2026-04-25 14:51
Airport Helsinki Vantaa Airport (EFHK)

Arrival

Time 2026-04-25 17:15
Airport Luxembourg-Findel International Airport (ELLX)
Time Latitude Longitude Altitude Speed Heading
2026-04-25 14:29 60.31720 24.96122 187 ft 0 kts 137°
2026-04-25 14:43 60.31725 24.96113 187 ft 2 kts 136°
2026-04-25 14:43 60.31737 24.96090 203 ft 2 kts 136°
2026-04-25 14:43 60.31748 24.96067 196 ft 2 kts 135°
2026-04-25 14:44 60.31760 24.96043 200 ft 2 kts 130°
2026-04-25 14:44 60.31769 24.96016 191 ft 2 kts 105°
2026-04-25 14:44 60.31767 24.95988 197 ft 1 kts 50°
2026-04-25 14:44 60.31765 24.95983 191 ft 0 kts 49°
2026-04-25 14:45 60.31767 24.95987 197 ft 1 kts 49°
2026-04-25 14:45 60.31775 24.96006 198 ft 3 kts 49°
2026-04-25 14:46 60.31792 24.96044 191 ft 4 kts 49°
2026-04-25 14:46 60.31817 24.96099 189 ft 6 kts 47°
2026-04-25 14:46 60.31850 24.96135 191 ft 5 kts
2026-04-25 14:46 60.31891 24.96094 192 ft 8 kts 319°
2026-04-25 14:47 60.31936 24.96012 192 ft 9 kts 317°
2026-04-25 14:47 60.31969 24.95951 187 ft 10 kts 317°
2026-04-25 14:47 60.32042 24.95815 192 ft 11 kts 317°
2026-04-25 14:47 60.32106 24.95694 194 ft 14 kts 317°
2026-04-25 14:48 60.32177 24.95564 196 ft 14 kts 317°
2026-04-25 14:48 60.32250 24.95429 195 ft 15 kts 317°
2026-04-25 14:48 60.32328 24.95291 187 ft 15 kts 329°
2026-04-25 14:48 60.32429 24.95214 193 ft 16 kts 341°
2026-04-25 14:49 60.32532 24.95149 194 ft 16 kts 342°
2026-04-25 14:49 60.32644 24.95076 191 ft 17 kts 341°
2026-04-25 14:49 60.32760 24.94997 187 ft 18 kts 341°
2026-04-25 14:49 60.32880 24.94917 194 ft 18 kts 335°
2026-04-25 14:50 60.32977 24.94755 187 ft 15 kts 316°
2026-04-25 14:50 60.33054 24.94613 194 ft 15 kts 318°
2026-04-25 14:50 60.33124 24.94477 193 ft 12 kts 304°
2026-04-25 14:50 60.33091 24.94335 193 ft 19 kts 227°
2026-04-25 14:51 60.32836 24.93776 192 ft 89 kts 228°
2026-04-25 14:51 60.32446 24.92911 195 ft 135 kts 228°
2026-04-25 14:51 60.31992 24.91895 326 ft 156 kts 229°
2026-04-25 14:51 60.31246 24.90364 1287 ft 152 kts 230°
2026-04-25 14:52 60.30458 24.88705 1616 ft 176 kts 234°
2026-04-25 14:52 60.29919 24.86363 1820 ft 196 kts 268°
2026-04-25 14:52 60.30204 24.83639 2331 ft 207 kts 292°
2026-04-25 14:52 60.30555 24.81816 2759 ft 215 kts 287°
2026-04-25 14:53 60.30914 24.77856 3681 ft 227 kts 269°
2026-04-25 14:53 60.30516 24.74653 4080 ft 246 kts 250°
2026-04-25 14:53 60.29844 24.71481 4741 ft 250 kts 249°
2026-04-25 14:53 60.29161 24.68242 5432 ft 252 kts 249°
2026-04-25 14:54 60.28453 24.64998 6109 ft 254 kts 248°
2026-04-25 14:54 60.27726 24.61755 6742 ft 253 kts 247°
2026-04-25 14:54 60.26987 24.58491 7329 ft 258 kts 247°
2026-04-25 14:54 60.26240 24.55223 7955 ft 258 kts 247°
2026-04-25 14:55 60.25484 24.51908 8516 ft 262 kts 247°
2026-04-25 14:55 60.24715 24.48570 9146 ft 264 kts 246°
2026-04-25 14:55 60.23900 24.45206 9536 ft 276 kts 243°
2026-04-25 14:55 60.22946 24.41742 9844 ft 289 kts 242°
2026-04-25 14:56 60.21953 24.38198 10406 ft 291 kts 242°
2026-04-25 14:56 60.20967 24.34614 11022 ft 293 kts 242°
2026-04-25 14:56 60.19985 24.31013 11714 ft 294 kts 242°
2026-04-25 14:56 60.18999 24.27381 12363 ft 297 kts 242°
2026-04-25 14:57 60.18004 24.23714 13037 ft 300 kts 242°
2026-04-25 14:57 60.17001 24.20022 13677 ft 302 kts 242°
2026-04-25 14:57 60.15999 24.16332 14355 ft 303 kts 242°
2026-04-25 14:57 60.14983 24.12606 15018 ft 306 kts 241°
2026-04-25 14:58 60.13958 24.08852 15690 ft 307 kts 241°
2026-04-25 14:58 60.12928 24.05082 16334 ft 309 kts 241°
2026-04-25 14:58 60.11889 24.01290 16990 ft 311 kts 241°
2026-04-25 14:58 60.10844 23.97481 17623 ft 313 kts 241°
2026-04-25 14:59 60.09790 23.93642 18179 ft 316 kts 241°
2026-04-25 14:59 60.08715 23.89735 18576 ft 322 kts 241°
2026-04-25 14:59 60.07631 23.85766 19093 ft 325 kts 242°
2026-04-25 14:59 60.06583 23.81750 19632 ft 325 kts 243°
2026-04-25 15:00 60.05539 23.77720 20190 ft 327 kts 243°
2026-04-25 15:00 60.04487 23.73686 20740 ft 328 kts 242°
2026-04-25 15:00 60.03420 23.69639 21280 ft 330 kts 242°
2026-04-25 15:00 60.02338 23.65555 21842 ft 332 kts 242°
2026-04-25 15:01 60.01251 23.61457 22369 ft 335 kts 242°
2026-04-25 15:01 60.00155 23.57328 22941 ft 338 kts 242°
2026-04-25 15:01 59.99048 23.53166 23371 ft 341 kts 242°
2026-04-25 15:01 59.97932 23.48981 23817 ft 344 kts 242°
2026-04-25 15:02 59.96814 23.44797 24280 ft 348 kts 242°
2026-04-25 15:02 59.95665 23.40506 24765 ft 351 kts 242°
2026-04-25 15:02 59.94509 23.36186 25226 ft 355 kts 242°
2026-04-25 15:02 59.93350 23.31864 25687 ft 358 kts 243°
2026-04-25 15:03 59.92166 23.27463 26120 ft 362 kts 243°
2026-04-25 15:03 59.90950 23.22955 26565 ft 366 kts 243°
2026-04-25 15:03 59.89740 23.18472 26996 ft 369 kts 243°
2026-04-25 15:03 59.88523 23.13972 27406 ft 373 kts 243°
2026-04-25 15:04 59.87291 23.09431 27968 ft 372 kts 243°
2026-04-25 15:04 59.86052 23.04879 28337 ft 377 kts 243°
2026-04-25 15:04 59.84795 23.00268 28706 ft 380 kts 244°
2026-04-25 15:04 59.83532 22.95638 29106 ft 383 kts 244°
2026-04-25 15:05 59.82275 22.91032 29347 ft 390 kts 244°
2026-04-25 15:05 59.80962 22.86231 29702 ft 392 kts 244°
2026-04-25 15:05 59.79670 22.81524 29951 ft 395 kts 244°
2026-04-25 15:06 59.77003 22.71844 30481 ft 402 kts 244°
2026-04-25 15:06 59.75661 22.66968 30737 ft 405 kts 244°
2026-04-25 15:06 59.74313 22.62064 30989 ft 408 kts 244°
2026-04-25 15:06 59.72960 22.57148 31244 ft 411 kts 244°
2026-04-25 15:07 59.71583 22.52161 31501 ft 413 kts 244°
2026-04-25 15:07 59.70193 22.47141 31757 ft 416 kts 244°
2026-04-25 15:07 59.68799 22.42121 32081 ft 416 kts 244°
2026-04-25 15:07 59.67395 22.37080 32384 ft 417 kts 244°
2026-04-25 15:08 59.66332 22.33269 32632 ft 417 kts 244°
2026-04-25 15:08 59.64950 22.28322 32944 ft 418 kts 244°
2026-04-25 15:08 59.63550 22.23320 33222 ft 419 kts 244°
2026-04-25 15:08 59.62145 22.18313 33453 ft 421 kts 244°
2026-04-25 15:09 59.60740 22.13319 33728 ft 420 kts 244°
2026-04-25 15:09 59.59331 22.08310 33997 ft 419 kts 244°
2026-04-25 15:09 59.56505 21.98305 34388 ft 422 kts 244°
2026-04-25 15:10 59.55562 21.94981 34527 ft 422 kts 244°
2026-04-25 15:10 59.53694 21.88416 34870 ft 420 kts 244°
2026-04-25 15:10 59.50913 21.78673 35154 ft 423 kts 244°
2026-04-25 15:11 59.49570 21.73999 35461 ft 420 kts 244°
2026-04-25 15:11 59.46777 21.64243 35527 ft 420 kts 243°
2026-04-25 15:12 59.42525 21.49484 35515 ft 418 kts 243°
2026-04-25 15:12 59.41113 21.44637 35988 ft 405 kts 243°
2026-04-25 15:12 59.40661 21.43088 36121 ft 402 kts 244°
2026-04-25 15:13 59.38412 21.35373 36689 ft 390 kts 244°
2026-04-25 15:13 59.35763 21.26284 36882 ft 393 kts 243°
2026-04-25 15:14 59.33025 21.16923 36994 ft 400 kts 244°
2026-04-25 15:14 59.30271 21.07565 36991 ft 410 kts 243°
2026-04-25 15:15 59.27411 20.97874 37052 ft 418 kts 244°
2026-04-25 15:15 59.24665 20.88624 37080 ft 426 kts 243°
2026-04-25 15:16 59.21834 20.79188 37127 ft 434 kts 243°
2026-04-25 15:16 59.17093 20.64372 37562 ft 438 kts 237°
2026-04-25 15:17 59.11909 20.51888 37542 ft 450 kts 233°
2026-04-25 15:18 59.07298 20.40881 37562 ft 457 kts 234°
2026-04-25 15:18 59.01909 20.27959 37584 ft 447 kts 234°
2026-04-25 15:19 59.00012 20.23462 37580 ft 436 kts 234°
2026-04-25 15:19 58.98715 20.20375 37626 ft 437 kts 235°
2026-04-25 15:19 58.94228 20.09668 37645 ft 445 kts 234°
2026-04-25 15:20 58.90280 20.00340 37577 ft 453 kts 235°
2026-04-25 15:20 58.86265 19.90871 37613 ft 459 kts 235°
2026-04-25 15:21 58.82202 19.81332 37628 ft 459 kts 235°
2026-04-25 15:21 58.78143 19.71851 37626 ft 459 kts 235°
2026-04-25 15:22 58.74070 19.62370 37626 ft 459 kts 234°
2026-04-25 15:22 58.69989 19.52899 37627 ft 459 kts 234°
2026-04-25 15:23 58.65942 19.43547 37632 ft 457 kts 235°
2026-04-25 15:23 58.61855 19.34149 37643 ft 457 kts 235°
2026-04-25 15:24 58.57794 19.24847 37631 ft 458 kts 234°
2026-04-25 15:24 58.54366 19.17022 37647 ft 457 kts 234°
2026-04-25 15:25 58.49596 19.06169 37638 ft 458 kts 234°
2026-04-25 15:25 58.45501 18.96919 37659 ft 450 kts 234°
2026-04-25 15:26 58.41449 18.87789 37651 ft 451 kts 235°
2026-04-25 15:26 58.37413 18.78711 37644 ft 451 kts 234°
2026-04-25 15:27 58.33348 18.69607 37644 ft 451 kts 234°
2026-04-25 15:28 58.27232 18.55980 37646 ft 452 kts 234°
2026-04-25 15:28 58.23175 18.46910 37652 ft 448 kts 234°
2026-04-25 15:29 58.19128 18.37992 37638 ft 449 kts 234°
2026-04-25 15:29 58.15041 18.29040 37639 ft 449 kts 234°
2026-04-25 15:30 58.10955 18.20089 37639 ft 449 kts 234°
2026-04-25 15:30 58.06868 18.11193 37635 ft 449 kts 234°
2026-04-25 15:31 58.02790 18.02330 37615 ft 448 kts 234°
2026-04-25 15:31 57.98713 17.93471 37636 ft 447 kts 234°
2026-04-25 15:32 57.94644 17.84589 37637 ft 448 kts 234°
2026-04-25 15:32 57.90525 17.75787 37634 ft 448 kts 234°
2026-04-25 15:33 57.84355 17.62612 37632 ft 448 kts 234°
2026-04-25 15:33 57.80288 17.53893 37610 ft 446 kts 234°
2026-04-25 15:34 57.76208 17.45216 37635 ft 446 kts 234°
2026-04-25 15:34 57.72796 17.38001 37634 ft 446 kts 233°
2026-04-25 15:35 57.65930 17.23538 37632 ft 446 kts 234°
2026-04-25 15:36 57.59747 17.10550 37634 ft 447 kts 233°
2026-04-25 15:36 57.55567 17.01911 37629 ft 450 kts 233°
2026-04-25 15:37 57.51396 16.93244 37630 ft 449 kts 233°
2026-04-25 15:37 57.47208 16.84616 37632 ft 449 kts 233°
2026-04-25 15:38 57.43046 16.75978 37631 ft 449 kts 234°
2026-04-25 15:38 57.38849 16.67352 37633 ft 449 kts 233°
2026-04-25 15:39 57.34660 16.58807 37627 ft 447 kts 233°
2026-04-25 15:39 57.30521 16.50311 37633 ft 447 kts 234°
2026-04-25 15:40 57.27737 16.44611 37645 ft 447 kts 233°
2026-04-25 15:40 57.22135 16.33337 37649 ft 448 kts 232°
2026-04-25 15:41 57.17711 16.25180 37638 ft 450 kts 230°
2026-04-25 15:41 57.13301 16.17047 37665 ft 445 kts 231°
2026-04-25 15:42 57.08973 16.08909 37646 ft 445 kts 232°
2026-04-25 15:42 57.04658 16.00830 37642 ft 445 kts 231°
2026-04-25 15:43 57.00308 15.92726 37652 ft 445 kts 231°
2026-04-25 15:43 56.95995 15.84707 37653 ft 445 kts 231°
2026-04-25 15:44 56.91629 15.76648 37637 ft 444 kts 231°
2026-04-25 15:44 56.87245 15.68569 37649 ft 444 kts 231°
2026-04-25 15:45 56.82888 15.60558 37668 ft 444 kts 231°
2026-04-25 15:45 56.79997 15.55261 37664 ft 444 kts 231°
2026-04-25 15:46 56.74184 15.44659 37667 ft 444 kts 231°
2026-04-25 15:46 56.69810 15.36705 37617 ft 444 kts 231°
2026-04-25 15:47 56.65443 15.28800 37665 ft 443 kts 231°
2026-04-25 15:47 56.61055 15.20876 37681 ft 446 kts 231°
2026-04-25 15:48 56.56632 15.12917 37675 ft 447 kts 231°
2026-04-25 15:48 56.52210 15.04992 37672 ft 447 kts 231°
2026-04-25 15:49 56.47786 14.97087 37682 ft 447 kts 231°
2026-04-25 15:49 56.43364 14.89220 37681 ft 446 kts 231°
2026-04-25 15:50 56.38948 14.81385 37687 ft 446 kts 231°
2026-04-25 15:50 56.34663 14.73776 37690 ft 446 kts 231°
2026-04-25 15:51 56.31701 14.68544 37706 ft 446 kts 231°
2026-04-25 15:51 56.25795 14.58182 37685 ft 446 kts 231°
2026-04-25 15:52 56.21368 14.50432 37698 ft 446 kts 231°
2026-04-25 15:52 56.16971 14.42766 37720 ft 445 kts 231°
2026-04-25 15:53 56.12875 14.35650 37754 ft 446 kts 231°
2026-04-25 15:53 56.08413 14.27905 37757 ft 448 kts 231°
2026-04-25 15:54 56.03956 14.20205 37770 ft 448 kts 231°
2026-04-25 15:54 55.99487 14.12525 37787 ft 447 kts 231°
2026-04-25 15:55 55.95009 14.04847 37730 ft 447 kts 231°
2026-04-25 15:55 55.90524 13.97163 37736 ft 446 kts 231°
2026-04-25 15:56 55.86091 13.89581 37737 ft 446 kts 231°
2026-04-25 15:56 55.81595 13.81956 37758 ft 447 kts 231°
2026-04-25 15:57 55.77124 13.74402 37775 ft 446 kts 231°
2026-04-25 15:57 55.72617 13.66817 37761 ft 447 kts 231°
2026-04-25 15:58 55.68109 13.59228 37768 ft 446 kts 231°
2026-04-25 15:58 55.63620 13.51684 37776 ft 447 kts 231°
2026-04-25 15:59 55.59099 13.44140 37787 ft 449 kts 231°
2026-04-25 15:59 55.54564 13.36594 37820 ft 444 kts 232°
2026-04-25 16:00 55.51572 13.31618 37810 ft 445 kts 232°
2026-04-25 16:00 55.46295 13.22857 37802 ft 446 kts 232°
2026-04-25 16:01 55.41769 13.15405 37802 ft 446 kts 231°
2026-04-25 16:01 55.37262 13.08034 37813 ft 446 kts 232°
2026-04-25 16:02 55.32747 13.00601 37815 ft 446 kts 232°
2026-04-25 16:02 55.28251 12.93209 37819 ft 446 kts 232°
2026-04-25 16:03 55.23746 12.85814 37828 ft 446 kts 232°
2026-04-25 16:03 55.19203 12.78397 37836 ft 446 kts 231°
2026-04-25 16:04 55.14644 12.71019 37816 ft 446 kts 231°
2026-04-25 16:04 55.09930 12.64005 37871 ft 448 kts 229°
2026-04-25 16:05 55.05202 12.56907 37838 ft 448 kts 230°
2026-04-25 16:06 54.98159 12.46192 37863 ft 448 kts 230°
2026-04-25 16:06 54.93458 12.39068 37871 ft 448 kts 230°
2026-04-25 16:07 54.88754 12.31961 37842 ft 446 kts 230°
2026-04-25 16:07 54.84081 12.24927 37883 ft 445 kts 230°
2026-04-25 16:08 54.79418 12.17925 37891 ft 446 kts 230°
2026-04-25 16:08 54.74722 12.10899 37893 ft 446 kts 230°
2026-04-25 16:09 54.70020 12.03885 37897 ft 446 kts 230°
2026-04-25 16:09 54.65317 11.96897 37940 ft 443 kts 230°
2026-04-25 16:10 54.60642 11.89966 37912 ft 443 kts 230°
2026-04-25 16:10 54.55955 11.83036 37924 ft 444 kts 229°
2026-04-25 16:11 54.51245 11.76102 37924 ft 446 kts 229°
2026-04-25 16:11 54.46532 11.69181 37925 ft 447 kts 229°
2026-04-25 16:12 54.41854 11.62141 37951 ft 444 kts 231°
2026-04-25 16:12 54.37296 11.55060 37945 ft 444 kts 231°
2026-04-25 16:13 54.32650 11.47971 37947 ft 445 kts 230°
2026-04-25 16:13 54.28011 11.40930 37958 ft 445 kts 230°
2026-04-25 16:14 54.23371 11.33901 37956 ft 445 kts 230°
2026-04-25 16:14 54.18764 11.26946 37969 ft 443 kts 230°
2026-04-25 16:15 54.14142 11.19985 37974 ft 443 kts 230°
2026-04-25 16:15 54.09510 11.13033 38011 ft 442 kts 230°
2026-04-25 16:16 54.04884 11.06109 37993 ft 443 kts 229°
2026-04-25 16:16 54.00268 10.99222 38014 ft 444 kts 229°
2026-04-25 16:17 53.95625 10.92319 38010 ft 443 kts 229°
2026-04-25 16:17 53.91015 10.85484 38018 ft 443 kts 229°
2026-04-25 16:18 53.86391 10.78647 38023 ft 443 kts 229°
2026-04-25 16:18 53.81734 10.71787 38021 ft 444 kts 229°
2026-04-25 16:19 53.77104 10.64984 37978 ft 444 kts 229°
2026-04-25 16:19 53.72467 10.58190 38027 ft 442 kts 229°
2026-04-25 16:20 53.65496 10.48020 38036 ft 442 kts 229°
2026-04-25 16:21 53.58561 10.37948 38063 ft 441 kts 228°
2026-04-25 16:21 53.53914 10.31212 38052 ft 440 kts 228°
2026-04-25 16:22 53.49252 10.24457 38090 ft 448 kts 228°
2026-04-25 16:22 53.44501 10.17655 38078 ft 449 kts 227°
2026-04-25 16:23 53.39743 10.10853 38065 ft 449 kts 227°
2026-04-25 16:23 53.34993 10.04057 38066 ft 449 kts 227°
2026-04-25 16:24 53.30275 9.97327 38076 ft 446 kts 227°
2026-04-25 16:24 53.25553 9.90610 38077 ft 446 kts 227°
2026-04-25 16:25 53.20838 9.83930 38092 ft 446 kts 227°
2026-04-25 16:25 53.16093 9.77238 38086 ft 446 kts 227°
2026-04-25 16:26 53.11353 9.70552 38085 ft 446 kts 227°
2026-04-25 16:26 53.06630 9.63922 38091 ft 446 kts 227°
2026-04-25 16:27 53.01941 9.57357 38089 ft 446 kts 227°
2026-04-25 16:27 52.97185 9.50715 38090 ft 446 kts 227°
2026-04-25 16:28 52.92434 9.44104 38087 ft 446 kts 227°
2026-04-25 16:28 52.87764 9.37359 38058 ft 442 kts 229°
2026-04-25 16:29 52.83254 9.30470 38097 ft 441 kts 229°
2026-04-25 16:29 52.78722 9.23666 38091 ft 441 kts 229°
2026-04-25 16:30 52.74934 9.18023 38088 ft 441 kts 229°
2026-04-25 16:30 52.69630 9.10146 38084 ft 441 kts 228°
2026-04-25 16:31 52.65086 9.03410 38089 ft 438 kts 228°
2026-04-25 16:31 52.60572 8.96737 38095 ft 438 kts 228°
2026-04-25 16:32 52.56030 8.90040 38092 ft 438 kts 228°
2026-04-25 16:32 52.51480 8.83352 38098 ft 438 kts 228°
2026-04-25 16:33 52.46935 8.76694 38100 ft 438 kts 228°
2026-04-25 16:33 52.42380 8.70038 38107 ft 437 kts 228°
2026-04-25 16:34 52.37859 8.63449 38095 ft 437 kts 228°
2026-04-25 16:34 52.33306 8.56837 38094 ft 437 kts 228°
2026-04-25 16:35 52.28752 8.50236 38095 ft 437 kts 228°
2026-04-25 16:35 52.24192 8.43650 38099 ft 437 kts 228°
2026-04-25 16:36 52.19666 8.37136 38127 ft 434 kts 227°
2026-04-25 16:36 52.15122 8.30605 38108 ft 434 kts 227°
2026-04-25 16:37 52.10583 8.24100 38111 ft 434 kts 227°
2026-04-25 16:37 52.06066 8.17620 38275 ft 428 kts 227°
2026-04-25 16:37 52.03820 8.14454 38453 ft 430 kts 227°
2026-04-25 16:38 52.01540 8.11199 37891 ft 439 kts 227°
2026-04-25 16:38 51.99264 8.07967 38289 ft 430 kts 227°
2026-04-25 16:38 51.97014 8.04770 38002 ft 438 kts 226°
2026-04-25 16:38 51.94728 8.01533 38171 ft 435 kts 226°
2026-04-25 16:39 51.92425 7.98275 38094 ft 438 kts 226°
2026-04-25 16:39 51.87836 7.91782 38118 ft 438 kts 226°
2026-04-25 16:40 51.83261 7.85348 38124 ft 438 kts 226°
2026-04-25 16:40 51.78634 7.78851 38099 ft 438 kts 226°
2026-04-25 16:41 51.74087 7.72480 38125 ft 436 kts 226°
2026-04-25 16:41 51.67212 7.62881 38133 ft 435 kts 226°
2026-04-25 16:42 51.62640 7.56527 38131 ft 434 kts 226°
2026-04-25 16:42 51.58098 7.50233 38133 ft 434 kts 226°
2026-04-25 16:43 51.54326 7.45012 38144 ft 433 kts 225°
2026-04-25 16:43 51.49786 7.38733 38143 ft 433 kts 225°
2026-04-25 16:44 51.45210 7.32435 38144 ft 433 kts 225°
2026-04-25 16:44 51.40979 7.25706 38186 ft 424 kts 237°
2026-04-25 16:45 51.37485 7.18178 38131 ft 424 kts 238°
2026-04-25 16:45 51.34024 7.10568 38172 ft 426 kts 238°
2026-04-25 16:46 51.30452 7.02857 38164 ft 433 kts 237°
2026-04-25 16:46 51.27467 6.96452 38160 ft 433 kts 237°
2026-04-25 16:47 51.23287 6.87471 38161 ft 432 kts 237°
2026-04-25 16:47 51.21511 6.83663 37799 ft 424 kts 237°
2026-04-25 16:47 51.19768 6.79945 37570 ft 409 kts 237°
2026-04-25 16:48 51.18070 6.76330 36897 ft 406 kts 237°
2026-04-25 16:48 51.16404 6.72777 36492 ft 397 kts 238°
2026-04-25 16:48 51.14760 6.69270 35892 ft 393 kts 237°
2026-04-25 16:48 51.13136 6.65811 35406 ft 387 kts 237°
2026-04-25 16:49 51.11529 6.62393 34869 ft 382 kts 237°
2026-04-25 16:49 51.09941 6.59024 34343 ft 379 kts 237°
2026-04-25 16:49 51.08248 6.55817 33838 ft 383 kts 230°
2026-04-25 16:49 51.06369 6.52779 33566 ft 390 kts 230°
2026-04-25 16:50 51.04462 6.49664 33285 ft 395 kts 230°
2026-04-25 16:50 51.02528 6.46541 33018 ft 396 kts 229°
2026-04-25 16:50 51.00584 6.43451 32752 ft 396 kts 229°
2026-04-25 16:50 50.98637 6.40379 32501 ft 397 kts 229°
2026-04-25 16:51 50.96672 6.37283 32232 ft 397 kts 229°
2026-04-25 16:51 50.94716 6.34192 31977 ft 398 kts 229°
2026-04-25 16:51 50.92745 6.31070 31721 ft 399 kts 229°
2026-04-25 16:51 50.91456 6.29029 31556 ft 399 kts 229°
2026-04-25 16:52 50.88813 6.24853 31213 ft 400 kts 229°
2026-04-25 16:52 50.86814 6.21702 30962 ft 401 kts 229°
2026-04-25 16:52 50.84858 6.18625 30735 ft 402 kts 229°
2026-04-25 16:52 50.84062 6.17374 30625 ft 402 kts 229°
2026-04-25 16:53 50.79721 6.10564 30120 ft 410 kts 229°
2026-04-25 16:53 50.77705 6.07408 29670 ft 403 kts 229°
2026-04-25 16:54 50.75737 6.04328 29414 ft 400 kts 229°
2026-04-25 16:54 50.73550 6.01485 28304 ft 419 kts 214°
2026-04-25 16:54 50.70799 5.99910 27073 ft 435 kts 194°
2026-04-25 16:54 50.67717 5.99647 26300 ft 436 kts 182°
2026-04-25 16:55 50.64765 5.99781 25687 ft 426 kts 182°
2026-04-25 16:55 50.61839 5.99785 25158 ft 415 kts 185°
2026-04-25 16:55 50.58975 5.99639 24583 ft 408 kts 186°
2026-04-25 16:55 50.56174 5.99435 24058 ft 400 kts 186°
2026-04-25 16:56 50.53408 5.99224 23498 ft 395 kts 186°
2026-04-25 16:56 50.50682 5.99015 23023 ft 391 kts 186°
2026-04-25 16:56 50.47959 5.98794 22475 ft 392 kts 186°
2026-04-25 16:56 50.45245 5.98570 21965 ft 390 kts 186°
2026-04-25 16:57 50.42543 5.98355 21465 ft 386 kts 186°
2026-04-25 16:57 50.40771 5.98217 21110 ft 384 kts 186°
2026-04-25 16:57 50.37236 5.97927 20431 ft 378 kts 186°
2026-04-25 16:57 50.34624 5.97704 19939 ft 374 kts 185°
2026-04-25 16:58 50.32033 5.97480 19449 ft 370 kts 185°
2026-04-25 16:58 50.29481 5.97261 18965 ft 367 kts 185°
2026-04-25 16:58 50.26937 5.97041 18477 ft 363 kts 185°
2026-04-25 16:58 50.24423 5.96821 17999 ft 360 kts 185°
2026-04-25 16:59 50.21937 5.96593 17510 ft 359 kts 185°
2026-04-25 16:59 50.19444 5.96369 17048 ft 356 kts 185°
2026-04-25 16:59 50.16978 5.96141 16560 ft 354 kts 185°
2026-04-25 16:59 50.14527 5.95914 16100 ft 351 kts 185°
2026-04-25 17:00 50.12098 5.95673 15624 ft 349 kts 186°
2026-04-25 17:00 50.09683 5.95414 15178 ft 346 kts 186°
2026-04-25 17:00 50.07283 5.95166 14729 ft 343 kts 186°
2026-04-25 17:00 50.04932 5.94883 14268 ft 336 kts 185°
2026-04-25 17:01 50.02643 5.94822 13811 ft 330 kts 182°
2026-04-25 17:01 50.00344 5.94800 13392 ft 323 kts 182°
2026-04-25 17:01 49.98136 5.94778 12946 ft 318 kts 182°
2026-04-25 17:01 49.95948 5.94748 12557 ft 312 kts 182°
2026-04-25 17:02 49.93793 5.94720 12122 ft 308 kts 182°
2026-04-25 17:02 49.91683 5.94890 11746 ft 305 kts 174°
2026-04-25 17:02 49.89582 5.95387 11314 ft 305 kts 173°
2026-04-25 17:02 49.87479 5.95901 10936 ft 305 kts 173°
2026-04-25 17:03 49.85384 5.96407 10541 ft 305 kts 173°
2026-04-25 17:03 49.83279 5.96912 10141 ft 305 kts 172°
2026-04-25 17:03 49.81188 5.97405 9712 ft 303 kts 173°
2026-04-25 17:03 49.79150 5.97875 9355 ft 299 kts 173°
2026-04-25 17:04 49.77089 5.98351 8955 ft 297 kts 173°
2026-04-25 17:04 49.75051 5.98821 8574 ft 295 kts 173°
2026-04-25 17:04 49.73055 5.99281 8192 ft 289 kts 173°
2026-04-25 17:04 49.71120 5.99725 7884 ft 272 kts 173°
2026-04-25 17:05 49.69323 6.00147 7550 ft 258 kts 173°
2026-04-25 17:05 49.65955 6.00940 6921 ft 237 kts 173°
2026-04-25 17:05 49.64390 6.01460 6603 ft 231 kts 163°
2026-04-25 17:06 49.62837 6.02279 5928 ft 241 kts 162°
2026-04-25 17:06 49.61281 6.03066 5443 ft 238 kts 162°
2026-04-25 17:06 49.59892 6.04393 4971 ft 233 kts 131°
2026-04-25 17:06 49.58642 6.05982 4482 ft 233 kts 148°
2026-04-25 17:07 49.57220 6.07023 4293 ft 218 kts 158°
2026-04-25 17:07 49.55823 6.07863 4044 ft 213 kts 159°
2026-04-25 17:07 49.54487 6.08645 3948 ft 199 kts 159°
2026-04-25 17:07 49.53190 6.09240 3838 ft 191 kts 175°
2026-04-25 17:08 49.51884 6.08960 3715 ft 194 kts 204°
2026-04-25 17:08 49.50813 6.07791 3627 ft 189 kts 229°
2026-04-25 17:08 49.50000 6.06173 3442 ft 189 kts 237°
2026-04-25 17:08 49.49271 6.04486 3261 ft 191 kts 240°
2026-04-25 17:09 49.48756 6.02672 3129 ft 179 kts 269°
2026-04-25 17:09 49.49203 6.01014 3137 ft 175 kts 326°
2026-04-25 17:09 49.50217 6.00047 3069 ft 181 kts 331°
2026-04-25 17:09 49.51340 5.99210 2995 ft 174 kts 345°
2026-04-25 17:10 49.52105 5.99074 2925 ft 164 kts
2026-04-25 17:10 49.53433 5.99933 2711 ft 148 kts 32°
2026-04-25 17:10 49.54269 6.00834 2766 ft 147 kts 34°
2026-04-25 17:10 49.55092 6.01832 2882 ft 154 kts 36°
2026-04-25 17:11 49.55842 6.03034 2790 ft 159 kts 53°
2026-04-25 17:11 49.56377 6.04480 2789 ft 154 kts 58°
2026-04-25 17:11 49.56897 6.05948 2903 ft 156 kts 58°
2026-04-25 17:11 49.57457 6.07398 2884 ft 158 kts 54°
2026-04-25 17:12 49.58043 6.08838 2710 ft 158 kts 56°
2026-04-25 17:12 49.58586 6.10250 2476 ft 151 kts 56°
2026-04-25 17:12 49.59081 6.11665 2146 ft 147 kts 56°
2026-04-25 17:12 49.59568 6.12961 1947 ft 134 kts 55°
2026-04-25 17:13 49.60016 6.14158 1848 ft 132 kts 54°
2026-04-25 17:13 49.60183 6.14570 1807 ft 135 kts 54°
2026-04-25 17:13 49.60972 6.16677 1499 ft 137 kts 55°
2026-04-25 17:13 49.61427 6.17899 1345 ft 131 kts 53°
2026-04-25 17:14 49.61904 6.19170 1187 ft 139 kts 57°
2026-04-25 17:14 49.62332 6.20313 1224 ft 105 kts 61°
2026-04-25 17:14 49.62636 6.21125 1233 ft 71 kts 60°
2026-04-25 17:14 49.62853 6.21710 1216 ft 55 kts 61°
2026-04-25 17:15 49.62921 6.21895 1214 ft 54 kts 60°
2026-04-25 17:15 49.62962 6.22004 1213 ft 44 kts 60°
2026-04-25 17:15 49.63054 6.22129 1214 ft 8 kts 349°
2026-04-25 17:16 49.63103 6.22088 1218 ft 10 kts 330°
2026-04-25 17:16 49.63146 6.22049 1223 ft 4 kts 329°
2026-04-25 17:16 49.63162 6.22033 1225 ft 4 kts 321°
2026-04-25 17:16 49.63174 6.21993 1226 ft 2 kts 278°
2026-04-25 17:17 49.63157 6.21900 1226 ft 13 kts 245°
2026-04-25 17:17 49.63113 6.21763 1224 ft 16 kts 244°
2026-04-25 17:17 49.63070 6.21625 1224 ft 12 kts 245°
2026-04-25 17:17 49.63033 6.21508 1225 ft 9 kts 244°
2026-04-25 17:18 49.63024 6.21425 1227 ft 4 kts 292°
2026-04-25 17:18 49.63052 6.21389 1229 ft 7 kts 331°
2026-04-25 17:18 49.63089 6.21357 1230 ft 6 kts 331°
2026-04-25 17:18 49.63132 6.21320 1230 ft 8 kts 331°
2026-04-25 17:19 49.63163 6.21317 1229 ft 2 kts 30°
2026-04-25 17:19 49.63172 6.21338 1228 ft 1 kts 61°
2026-04-25 17:19 49.63179 6.21359 1228 ft 3 kts 59°